20050418,000017,291450,30.915810,-121.455783,5.2,15.880,33.110,41.664,545.41,0.0,0.859,15.235,15.203, NaN,24.321,   NaN,14.62,1016.63,93.99,14.97,75.8,98.3,7.7,2.8,352.2,38.6,8.5,6.3,NaN, NaN,26.1,241.7,228.8,1113782417,1113782417,1,11.1,000017,000017,236.4,30.915853,-121.455665,10.16,NaN,NaN,15.884, NaN,NaN,NaN, NaN, NaN
20050418,000047,291480,30.914950,-121.457190,5.1,15.876,33.108,41.659,539.51,0.0,0.878,15.242,15.211, NaN,24.321,   NaN,14.67,1016.55,94.16,15.00,77.2,55.2,7.3,2.5,355.4,39.9,8.3,5.3,NaN, NaN,25.3,238.2,226.9,1113782447,1113782447,1,11.0,000047,000047,236.2,30.914991,-121.457070,10.13,NaN,NaN,15.880, NaN,NaN,NaN, NaN, NaN
20050418,000118,291511,30.914083,-121.458591,5.1,15.876,33.105,41.655,531.93,0.0,0.859,15.251,15.217, NaN,24.318,   NaN,14.64,1016.43,94.15,14.98,74.9,60.7,7.4,3.0,353.1,30.7,8.2,5.4,NaN, NaN,24.5,253.0,243.6,1113782478,1113782478,1,10.7,000077,000078,236.7,30.914090,-121.458525,10.26,NaN,NaN,15.880, NaN,NaN,NaN, NaN, NaN
20050418,000148,291541,30.913246,-121.459983,5.1,15.881,33.096,41.650,513.23,0.0,0.859,15.258,15.225, NaN,24.310,   NaN,14.69,1016.59,94.40,15.01,74.5,71.8,7.4,3.2,352.5,33.2,8.1,5.9,NaN, NaN,25.0,237.2,237.4,1113782508,1113782508,1,10.3,000107,000108,235.0,30.913256,-121.459913,10.05,NaN,NaN,15.885, NaN,NaN,NaN, NaN, NaN
20050418,000218,291571,30.912353,-121.461368,5.0,15.885,33.089,41.646,489.51,0.0,0.859,15.267,15.233, NaN,24.304,   NaN,14.72,1016.58,94.45,15.02,71.6,89.9,7.4,3.0,349.7,33.6,7.9,6.3,NaN, NaN,24.7,230.5,229.5,1113782538,1113782538,1,11.1,000137,000138,237.2,30.912360,-121.461296,10.17,NaN,NaN,15.889, NaN,NaN,NaN, NaN, NaN
20050418,000247,291600,30.911525,-121.462765,5.1,15.889,33.084,41.644,461.36,0.0,0.840,15.272,15.236, NaN,24.299,   NaN,14.67,1016.65,94.38,15.02,70.7,79.8,7.6,3.3,348.3,23.6,8.0,6.0,NaN, NaN,20.6,228.8,239.3,1113782567,1113782567,1,10.6,000167,000167,237.7,30.911546,-121.462653,10.11,NaN,NaN,15.893, NaN,NaN,NaN, NaN, NaN
20050418,000318,291631,30.910648,-121.464140,5.0,15.896,33.077,41.643,436.61,0.0,0.859,15.276,15.242, NaN,24.292,   NaN,14.65,1016.60,94.58,15.00,74.1,72.2,7.5,3.2,351.3,28.5,8.2,5.8,NaN, NaN,20.8,228.7,229.4,1113782598,1113782598,1,10.7,000197,000198,236.4,30.910650,-121.464070,9.85,NaN,NaN,15.900, NaN,NaN,NaN, NaN, NaN
20050418,000347,291660,30.909800,-121.465533,5.0,15.902,33.072,41.643,420.23,0.0,0.859,15.279,15.243, NaN,24.287,   NaN,14.62,1016.55,94.72,14.99,76.5,81.1,7.4,3.3,353.1,25.2,8.3,5.9,NaN, NaN,20.4,223.3,230.8,1113782628,1113782628,1,10.4,000227,000228,235.7,30.909798,-121.465458,10.31,NaN,NaN,15.906, NaN,NaN,NaN, NaN, NaN
20050418,000417,291690,30.908920,-121.466900,5.1,15.909,33.067,41.644,417.05,0.0,0.859,15.276,15.245, NaN,24.282,   NaN,14.56,1016.48,94.73,14.95,73.7,76.1,8.1,3.5,348.3,26.2,8.6,6.1,NaN, NaN,20.3,240.2,228.6,1113782658,1113782657,1,10.9,000257,000257,239.1,30.908940,-121.466786,10.06,NaN,NaN,15.913, NaN,NaN,NaN, NaN, NaN
20050418,000447,291720,30.908091,-121.468290,5.0,15.914,33.069,41.651,433.18,0.0,0.859,15.276,15.244, NaN,24.282,   NaN,14.51,1016.50,94.90,14.91,74.9,85.6,7.9,3.0,350.7,31.8,8.5,6.2,NaN, NaN,19.8,254.5,236.2,1113782688,1113782687,1,10.3,000287,000287,237.1,30.908116,-121.468176,9.99,NaN,NaN,15.918, NaN,NaN,NaN, NaN, NaN
20050418,000518,291751,30.907223,-121.469678,5.0,15.918,33.069,41.654,463.54,0.0,0.859,15.276,15.246, NaN,24.281,   NaN,14.46,1016.50,94.91,14.86,75.0,99.0,8.3,2.8,348.3,44.1,8.8,6.1,NaN, NaN,19.7,245.0,239.7,1113782718,1113782718,1,10.2,000317,000318,234.7,30.907241,-121.469613,10.07,NaN,NaN,15.922, NaN,NaN,NaN, NaN, NaN
20050418,000547,291780,30.906365,-121.471073,5.0,15.921,33.070,41.658,486.77,0.0,0.859,15.280,15.248, NaN,24.281,   NaN,14.50,1016.57,95.26,14.88,73.4,66.2,7.7,2.9,350.3,39.1,8.2,6.0,NaN, NaN,21.4,230.6,238.5,1113782748,1113782747,1,10.6,000347,000347,235.9,30.906406,-121.470961,10.05,NaN,NaN,15.925, NaN,NaN,NaN, NaN, NaN
20050418,000618,291811,30.905508,-121.472471,5.1,15.924,33.070,41.661,473.02,0.0,0.859,15.279,15.247, NaN,24.281,   NaN,14.45,1016.59,95.21,14.83,75.3,105.3,8.1,3.5,350.6,34.4,8.7,6.7,NaN, NaN,20.5,232.2,233.5,1113782778,1113782778,1,10.5,000377,000378,237.6,30.905513,-121.472405,10.01,NaN,NaN,15.928, NaN,NaN,NaN, NaN, NaN
20050418,000647,291840,30.904641,-121.473898,5.0,15.921,33.075,41.664,439.07,0.0,0.859,15.286,15.249, NaN,24.285,   NaN,14.51,1016.62,95.57,14.87,73.2,73.5,7.5,3.4,352.1,30.1,8.1,6.1,NaN, NaN,20.0,233.5,234.2,1113782808,1113782808,1,10.7,000407,000408,237.1,30.904650,-121.473830,10.12,NaN,NaN,15.925, NaN,NaN,NaN, NaN, NaN
20050418,000717,291870,30.903791,-121.475320,5.0,15.922,33.079,41.669,405.28,0.0,0.859,15.287,15.251, NaN,24.288,   NaN,14.56,1016.63,95.73,14.93,73.0,53.3,7.4,3.6,352.8,20.1,8.1,5.2,NaN, NaN,20.2,253.6,227.1,1113782838,1113782837,1,10.6,000437,000437,238.1,30.903813,-121.475206,10.10,NaN,NaN,15.926, NaN,NaN,NaN, NaN, NaN
20050418,000747,291900,30.902978,-121.476760,4.9,15.928,33.079,41.675,402.79,0.0,0.859,15.290,15.257, NaN,24.286,   NaN,14.53,1016.61,95.71,14.92,74.7,68.3,7.6,3.1,353.7,34.1,8.3,5.9,NaN, NaN,20.5,237.3,238.9,1113782868,1113782868,1,10.4,000467,000468,235.7,30.902978,-121.476693,10.27,NaN,NaN,15.932, NaN,NaN,NaN, NaN, NaN
20050418,000817,291930,30.902121,-121.478171,4.9,15.925,33.084,41.678,428.75,0.0,0.859,15.291,15.257, NaN,24.291,   NaN,14.50,1016.60,95.73,14.89,72.2,70.5,8.1,3.2,348.5,26.6,8.5,5.4,NaN, NaN,20.4,215.9,231.6,1113782898,1113782897,1,10.2,000497,000497,237.5,30.902155,-121.478061,9.94,NaN,NaN,15.929, NaN,NaN,NaN, NaN, NaN
20050418,000847,291960,30.901290,-121.479608,5.0,15.927,33.084,41.680,447.60,0.0,0.859,15.294,15.260, NaN,24.291,   NaN,14.47,1016.56,95.91,14.85,76.1,76.0,8.1,3.3,351.5,27.9,8.8,5.8,NaN, NaN,22.2,240.4,238.9,1113782928,1113782928,1,10.9,000527,000528,238.6,30.901280,-121.479536,10.02,NaN,NaN,15.931, NaN,NaN,NaN, NaN, NaN
20050418,000917,291990,30.900425,-121.481026,5.1,15.930,33.085,41.684,462.42,0.0,0.840,15.294,15.261, NaN,24.291,   NaN,14.50,1016.64,96.15,14.84,71.5,88.4,7.7,2.8,350.3,32.5,8.1,6.4,NaN, NaN,19.8,250.8,240.0,1113782958,1113782957,1,10.5,000557,000557,236.4,30.900448,-121.480915,10.26,NaN,NaN,15.934, NaN,NaN,NaN, NaN, NaN
20050418,000947,292020,30.899578,-121.482468,5.0,15.935,33.083,41.686,482.34,0.0,0.840,15.300,15.267, NaN,24.288,   NaN,14.49,1016.62,95.91,14.83,80.1,115.4,8.4,3.0,354.0,38.8,9.4,6.9,NaN, NaN,21.8,226.4,238.8,1113782988,1113782987,1,10.5,000587,000587,238.1,30.899605,-121.482353,10.22,NaN,NaN,15.939, NaN,NaN,NaN, NaN, NaN
20050418,001017,292050,30.898731,-121.483886,5.1,15.937,33.086,41.691,499.03,0.0,0.840,15.300,15.268, NaN,24.290,   NaN,14.43,1016.55,95.97,14.77,83.4,98.8,8.1,2.8,357.4,33.7,9.5,6.4,NaN, NaN,20.8,204.9,222.4,1113783018,1113783018,1,10.5,000617,000618,237.5,30.898718,-121.483811,10.16,NaN,NaN,15.941, NaN,NaN,NaN, NaN, NaN
20050418,001047,292080,30.897905,-121.485291,5.1,15.938,33.084,41.690,505.98,0.0,0.859,15.302,15.270, NaN,24.288,   NaN,14.42,1016.35,95.94,14.74,76.2,77.2,9.2,4.3,348.7,20.5,9.7,6.6,NaN, NaN,20.8,233.3,227.3,1113783048,1113783047,1,10.6,000647,000647,237.2,30.897930,-121.485171,9.57,NaN,NaN,15.942, NaN,NaN,NaN, NaN, NaN
20050418,001117,292110,30.897070,-121.486730,5.0,15.941,33.085,41.694,505.78,0.0,0.840,15.303,15.272, NaN,24.288,   NaN,14.43,1016.49,95.97,14.72,79.1,89.9,8.7,2.9,352.1,38.3,9.5,5.9,NaN, NaN,21.1,236.3,236.7,1113783078,1113783078,1,10.8,000677,000678,236.6,30.897068,-121.486656,10.13,NaN,NaN,15.945, NaN,NaN,NaN, NaN, NaN
20050418,001147,292140,30.896186,-121.488150,5.1,15.944,33.085,41.697,509.01,0.0,0.840,15.303,15.270, NaN,24.288,   NaN,14.40,1016.57,95.71,14.66,86.9,198.5,8.6,2.2,357.1,55.7,10.2,6.4,NaN, NaN,21.6,240.9,238.9,1113783108,1113783107,1,10.4,000707,000707,236.0,30.896218,-121.488028,10.51,NaN,NaN,15.948, NaN,NaN,NaN, NaN, NaN
20050418,001218,292171,30.895323,-121.489590,5.2,15.945,33.088,41.702,513.84,0.0,0.840,15.302,15.272, NaN,24.289,   NaN,14.47,1016.54,95.96,14.68,76.8,88.9,8.3,2.9,352.0,49.2,9.1,5.7,NaN, NaN,20.6,235.9,237.3,1113783138,1113783138,1,11.1,000737,000738,236.9,30.895325,-121.489515,10.20,NaN,NaN,15.949, NaN,NaN,NaN, NaN, NaN
20050418,001247,292200,30.894455,-121.491025,5.0,15.949,33.086,41.703,510.91,0.0,0.859,15.301,15.270, NaN,24.287,   NaN,14.42,1016.54,95.47,14.67,77.4,90.6,9.1,3.2,350.0,26.7,9.8,6.0,NaN, NaN,20.5,225.6,235.7,1113783168,1113783167,1,11.2,000767,000767,238.3,30.894483,-121.490903,10.21,NaN,NaN,15.953, NaN,NaN,NaN, NaN, NaN
20050418,001318,292231,30.893606,-121.492463,5.0,15.952,33.086,41.706,506.02,0.0,0.859,15.300,15.270, NaN,24.287,   NaN,14.43,1016.40,95.39,14.65,74.6,76.2,9.1,3.8,347.3,28.2,9.5,6.4,NaN, NaN,21.6,244.0,241.3,1113783198,1113783198,1,10.4,000797,000798,235.7,30.893616,-121.492393,10.11,NaN,NaN,15.956, NaN,NaN,NaN, NaN, NaN
20050418,001347,292260,30.892750,-121.493893,5.0,15.950,33.090,41.708,508.34,0.0,0.859,15.300,15.270, NaN,24.290,   NaN,14.40,1016.59,95.18,14.60,81.4,83.0,9.0,3.2,352.5,35.5,10.0,6.1,NaN, NaN,21.4,252.8,238.9,1113783228,1113783227,1,11.5,000827,000827,237.5,30.892773,-121.493770,9.92,NaN,NaN,15.954, NaN,NaN,NaN, NaN, NaN
20050418,001417,292290,30.891883,-121.495308,5.1,15.951,33.090,41.710,510.60,0.0,0.840,15.303,15.271, NaN,24.290,   NaN,14.45,1016.47,95.07,14.64,84.8,146.0,8.4,3.1,357.2,41.3,9.8,7.2,NaN, NaN,22.6,224.6,231.1,1113783258,1113783258,1,10.6,000857,000858,238.4,30.891880,-121.495230,10.18,NaN,NaN,15.955, NaN,NaN,NaN, NaN, NaN
20050418,001448,292321,30.891056,-121.496738,5.0,15.948,33.095,41.712,516.98,0.0,0.859,15.305,15.274, NaN,24.294,   NaN,14.51,1016.58,95.00,14.66,82.1,75.2,7.7,2.0,358.5,48.1,9.0,5.7,NaN, NaN,20.7,232.0,237.7,1113783288,1113783288,1,11.0,000887,000888,237.6,30.891051,-121.496663,9.89,NaN,NaN,15.952, NaN,NaN,NaN, NaN, NaN
20050418,001517,292350,30.890208,-121.498161,5.1,15.948,33.098,41.715,521.26,0.0,0.859,15.305,15.272, NaN,24.297,   NaN,14.54,1016.56,94.78,14.70,85.5,71.7,7.7,2.2,0.2,43.6,9.3,5.7,NaN, NaN,22.0,248.4,229.1,1113783318,1113783317,1,11.1,000917,000917,235.9,30.890231,-121.498041,10.18,NaN,NaN,15.952, NaN,NaN,NaN, NaN, NaN
20050418,001548,292381,30.889378,-121.499598,5.1,15.950,33.096,41.715,519.42,0.0,0.859,15.305,15.271, NaN,24.295,   NaN,14.56,1016.55,94.59,14.74,86.1,109.0,7.5,2.5,1.8,46.6,9.1,6.4,NaN, NaN,21.6,221.0,230.2,1113783348,1113783348,1,10.5,000947,000948,237.4,30.889376,-121.499518,10.14,NaN,NaN,15.954, NaN,NaN,NaN, NaN, NaN
20050418,001618,292411,30.888500,-121.501016,5.1,15.948,33.098,41.716,533.95,0.0,0.840,15.306,15.274, NaN,24.297,   NaN,14.63,1016.42,94.53,14.78,85.1,47.4,8.2,3.7,357.7,31.5,9.7,5.9,NaN, NaN,22.1,220.5,224.6,1113783378,1113783378,1,11.3,000977,000978,237.7,30.888498,-121.500940,10.09,NaN,NaN,15.952, NaN,NaN,NaN, NaN, NaN
20050418,001647,292440,30.887668,-121.502438,4.9,15.952,33.096,41.717,552.10,0.0,0.840,15.307,15.277, NaN,24.295,   NaN,14.53,1016.63,94.07,14.71,84.9,76.5,8.8,3.4,355.2,25.5,10.2,5.4,NaN, NaN,22.0,235.7,232.6,1113783408,1113783407,1,11.0,001007,001007,236.2,30.887705,-121.502320,10.29,NaN,NaN,15.956, NaN,NaN,NaN, NaN, NaN
20050418,001717,292470,30.886823,-121.503890,5.1,15.953,33.097,41.718,531.17,0.0,0.840,15.311,15.277, NaN,24.295,   NaN,14.63,1016.61,94.38,14.76,88.9,93.1,7.6,2.3,2.6,38.6,9.5,5.9,NaN, NaN,21.9,241.9,241.0,1113783438,1113783437,1,10.6,001037,001037,235.7,30.886850,-121.503763,10.34,NaN,NaN,15.957, NaN,NaN,NaN, NaN, NaN
20050418,001748,292501,30.885988,-121.505340,5.1,15.955,33.095,41.719,492.20,0.0,0.859,15.307,15.273, NaN,24.293,   NaN,14.63,1016.62,94.13,14.79,84.4,113.8,7.7,3.0,0.3,39.6,9.2,6.6,NaN, NaN,21.5,234.6,237.9,1113783468,1113783468,1,10.8,001067,001068,238.2,30.885986,-121.505266,10.19,NaN,NaN,15.959, NaN,NaN,NaN, NaN, NaN
20050418,001817,292530,30.885165,-121.506786,5.1,15.953,33.098,41.720,479.18,0.0,0.859,15.305,15.271, NaN,24.295,   NaN,14.64,1016.48,93.88,14.82,72.7,111.6,8.2,3.8,351.9,38.1,8.7,7.6,NaN, NaN,21.9,220.7,229.1,1113783498,1113783497,1,11.1,001097,001097,241.7,30.885205,-121.506666,10.01,NaN,NaN,15.957, NaN,NaN,NaN, NaN, NaN
20050418,002256,292809,30.877935,-121.520458,5.1,15.943,33.108,41.722,331.49,0.0,0.859,15.271,15.239, NaN,24.305,   NaN,14.56,1016.58,93.26,14.81,80.0,83.0,7.8,4.5,359.4,21.7,8.9,6.9,NaN, NaN,21.5,237.6,245.2,1113783777,1113783776,1,10.1,001376,001376,239.6,30.877958,-121.520331,10.16,NaN,NaN,15.947, NaN,NaN,NaN, NaN, NaN
20050418,002326,292839,30.877136,-121.521916,5.0,15.942,33.113,41.726,326.35,0.0,0.859,15.267,15.231, NaN,24.309,   NaN,14.51,1016.62,93.11,14.78,79.9,77.5,7.7,4.4,358.8,20.5,8.9,6.6,NaN, NaN,22.8,245.0,231.8,1113783806,1113783806,1,11.2,001406,001406,242.1,30.877165,-121.521781,9.90,NaN,NaN,15.946, NaN,NaN,NaN, NaN, NaN
20050418,002356,292869,30.876393,-121.523401,4.9,15.937,33.112,41.721,323.38,0.0,0.859,15.261,15.227, NaN,24.310,   NaN,14.53,1016.64,93.32,14.76,83.1,66.7,7.5,3.7,1.9,29.0,8.9,5.8,NaN, NaN,21.4,243.5,237.6,1113783836,1113783836,1,10.4,001436,001436,238.9,30.876420,-121.523265,10.32,NaN,NaN,15.941, NaN,NaN,NaN, NaN, NaN
20050418,002426,292899,30.875606,-121.524881,5.1,15.938,33.115,41.724,321.65,0.0,0.859,15.255,15.221, NaN,24.312,   NaN,14.59,1016.55,93.53,14.83,84.0,57.3,6.9,2.8,5.4,40.1,8.5,5.3,NaN, NaN,21.4,251.8,237.6,1113783867,1113783866,1,11.5,001466,001466,240.1,30.875626,-121.524745,10.16,NaN,NaN,15.942, NaN,NaN,NaN, NaN, NaN
20050418,002457,292930,30.874810,-121.526363,5.2,15.927,33.120,41.720,319.66,0.0,0.859,15.252,15.217, NaN,24.318,   NaN,14.66,1016.37,93.56,14.91,78.2,54.6,7.1,2.6,0.3,38.5,8.2,5.3,NaN, NaN,22.0,236.6,232.5,1113783897,1113783896,1,11.3,001496,001496,241.3,30.874838,-121.526231,10.17,NaN,NaN,15.931, NaN,NaN,NaN, NaN, NaN
20050418,002526,292959,30.874041,-121.527851,5.2,15.926,33.118,41.717,320.15,0.0,0.859,15.247,15.215, NaN,24.317,   NaN,14.57,1016.54,93.24,14.85,77.2,55.8,7.5,3.3,358.5,30.1,8.4,5.4,NaN, NaN,22.4,228.1,239.1,1113783927,1113783926,1,10.9,001526,001526,241.6,30.874065,-121.527721,9.99,NaN,NaN,15.930, NaN,NaN,NaN, NaN, NaN
20050418,002556,292989,30.873305,-121.529273,4.9,15.917,33.121,41.712,328.32,0.0,0.859,15.242,15.212, NaN,24.322,   NaN,14.59,1016.60,93.59,14.88,78.3,74.2,7.2,3.0,0.6,31.4,8.3,5.7,NaN, NaN,21.6,229.0,234.4,1113783956,1113783956,1,10.7,001555,001556,242.6,30.873295,-121.529190,9.56,NaN,NaN,15.921, NaN,NaN,NaN, NaN, NaN
20050418,002627,293020,30.872518,-121.530808,5.0,15.911,33.123,41.709,334.92,0.0,0.840,15.238,15.208, NaN,24.324,   NaN,14.61,1016.65,93.65,14.88,74.0,78.3,7.3,3.0,356.9,33.9,8.0,5.8,NaN, NaN,22.0,237.3,239.2,1113783987,1113783986,1,10.6,001586,001586,238.1,30.872550,-121.530685,10.27,NaN,NaN,15.915, NaN,NaN,NaN, NaN, NaN
20050418,002656,293049,30.871705,-121.532278,5.1,15.908,33.122,41.705,338.29,0.0,0.859,15.232,15.200, NaN,24.324,   NaN,14.65,1016.51,93.82,14.92,72.8,59.5,7.6,3.5,354.1,31.1,8.2,5.6,NaN, NaN,22.5,243.3,235.4,1113784017,1113784016,1,11.2,001616,001616,240.9,30.871731,-121.532145,9.81,NaN,NaN,15.912, NaN,NaN,NaN, NaN, NaN
20050418,002726,293079,30.870931,-121.533751,5.2,15.902,33.123,41.699,331.14,0.0,0.859,15.230,15.199, NaN,24.326,   NaN,14.61,1016.30,93.70,14.90,73.1,69.2,7.8,3.2,353.4,34.6,8.3,5.7,NaN, NaN,21.6,228.7,237.7,1113784047,1113784046,1,10.3,001646,001646,241.1,30.870953,-121.533613,10.26,NaN,NaN,15.906, NaN,NaN,NaN, NaN, NaN
20050418,002756,293109,30.870131,-121.535203,5.1,15.896,33.121,41.692,321.18,0.0,0.840,15.228,15.193, NaN,24.326,   NaN,14.56,1016.34,93.67,14.87,72.7,82.0,8.5,3.2,351.1,31.7,8.9,6.0,NaN, NaN,21.4,251.7,234.3,1113784077,1113784076,1,10.9,001676,001676,244.4,30.870158,-121.535073,10.10,NaN,NaN,15.900, NaN,NaN,NaN, NaN, NaN
20050418,002826,293139,30.869386,-121.536686,5.0,15.889,33.123,41.688,321.04,0.0,0.840,15.223,15.192, NaN,24.329,   NaN,14.56,1016.52,93.83,14.85,74.1,75.5,8.5,3.7,352.5,23.4,9.1,6.0,NaN, NaN,22.4,246.5,231.3,1113784106,1113784106,1,11.1,001706,001706,241.4,30.869406,-121.536555,10.15,NaN,NaN,15.893, NaN,NaN,NaN, NaN, NaN
20050418,002857,293170,30.868640,-121.538163,5.0,15.888,33.119,41.682,322.10,0.0,0.840,15.220,15.190, NaN,24.326,   NaN,14.56,1016.50,93.90,14.86,73.4,66.0,8.2,3.4,354.4,30.8,8.7,5.7,NaN, NaN,22.1,252.3,239.6,1113784137,1113784136,1,10.6,001736,001736,243.6,30.868651,-121.538023,10.11,NaN,NaN,15.892, NaN,NaN,NaN, NaN, NaN
20050418,002926,293199,30.867876,-121.539608,5.2,15.883,33.121,41.681,312.24,0.0,0.859,15.222,15.190, NaN,24.329,   NaN,14.47,1016.49,93.69,14.81,71.5,58.3,8.1,3.4,353.2,32.7,8.5,5.7,NaN, NaN,22.9,255.9,235.1,1113784167,1113784166,1,10.7,001766,001766,242.4,30.867891,-121.539473,10.02,NaN,NaN,15.887, NaN,NaN,NaN, NaN, NaN
20050418,002957,293230,30.867156,-121.541073,5.0,15.881,33.117,41.674,296.52,0.0,0.859,15.241,15.210, NaN,24.326,   NaN,14.49,1016.58,93.95,14.80,75.9,77.2,8.3,4.0,354.9,27.4,8.9,6.6,NaN, NaN,22.1,232.2,252.0,1113784197,1113784196,1,10.2,001796,001796,241.1,30.867168,-121.540936,10.49,NaN,NaN,15.885, NaN,NaN,NaN, NaN, NaN
20050418,003026,293259,30.866416,-121.542541,5.0,15.884,33.111,41.669,288.85,0.0,0.840,15.275,15.242, NaN,24.321,   NaN,14.48,1016.62,94.00,14.80,79.5,85.0,8.2,4.2,357.7,23.7,9.2,6.8,NaN, NaN,20.7,240.4,250.1,1113784227,1113784226,1,10.8,001826,001826,240.6,30.866421,-121.542403,10.22,NaN,NaN,15.888, NaN,NaN,NaN, NaN, NaN
20050418,003056,293289,30.865630,-121.543996,5.1,15.876,33.112,41.663,287.84,0.0,0.859,15.309,15.278, NaN,24.324,   NaN,14.52,1016.62,94.21,14.81,79.9,70.2,8.0,4.2,358.4,24.5,9.1,6.2,NaN, NaN,21.3,256.5,242.8,1113784256,1113784256,1,11.1,001856,001856,241.2,30.865636,-121.543861,10.36,NaN,NaN,15.880, NaN,NaN,NaN, NaN, NaN
20050418,003126,293319,30.864870,-121.545483,5.3,15.874,33.109,41.658,285.51,0.0,0.859,15.338,15.308, NaN,24.322,   NaN,14.53,1016.61,94.27,14.84,78.1,74.2,7.6,3.5,359.5,32.1,8.6,6.1,NaN, NaN,22.3,226.4,235.4,1113784286,1113784286,1,11.0,001886,001886,242.9,30.864883,-121.545348,10.05,NaN,NaN,15.878, NaN,NaN,NaN, NaN, NaN
20050418,003156,293349,30.864141,-121.546966,5.1,15.884,33.098,41.655,290.63,0.0,0.859,15.360,15.329, NaN,24.311,   NaN,14.61,1016.57,94.47,14.89,74.5,76.9,7.5,3.1,358.1,30.5,8.2,5.8,NaN, NaN,22.0,236.1,239.8,1113784316,1113784316,1,9.9,001916,001916,241.8,30.864151,-121.546823,10.05,NaN,NaN,15.888, NaN,NaN,NaN, NaN, NaN
20050418,003226,293379,30.863418,-121.548480,5.1,15.914,33.065,41.647,306.95,0.0,0.859,15.378,15.346, NaN,24.279,   NaN,14.59,1016.60,94.46,14.91,71.2,85.7,7.4,3.4,356.3,33.0,7.9,6.3,NaN, NaN,21.9,234.2,243.4,1113784346,1113784346,1,11.0,001946,001946,242.4,30.863418,-121.548341,10.29,NaN,NaN,15.918, NaN,NaN,NaN, NaN, NaN
20050418,003256,293409,30.862676,-121.549981,5.0,15.936,33.050,41.650,326.33,0.0,0.859,15.389,15.357, NaN,24.262,   NaN,14.56,1016.67,94.44,14.88,71.2,96.5,7.6,3.6,355.3,36.7,8.1,6.9,NaN, NaN,22.0,247.4,251.2,1113784377,1113784376,1,10.5,001976,001976,243.9,30.862671,-121.549840,10.08,NaN,NaN,15.940, NaN,NaN,NaN, NaN, NaN
20050418,003326,293439,30.861981,-121.551483,5.2,15.970,33.023,41.652,337.58,0.0,0.859,15.399,15.369, NaN,24.234,   NaN,14.59,1016.47,94.61,14.87,73.1,75.0,8.4,4.1,353.8,31.7,8.8,6.4,NaN, NaN,20.5,232.2,251.1,1113784406,1113784406,1,10.6,002006,002006,244.3,30.861985,-121.551336,9.94,NaN,NaN,15.974, NaN,NaN,NaN, NaN, NaN
20050418,003356,293469,30.861286,-121.552975,5.1,15.993,33.011,41.660,335.39,0.0,0.840,15.403,15.373, NaN,24.220,   NaN,14.49,1016.62,94.30,14.84,73.5,67.6,8.4,4.3,355.6,29.6,8.8,5.9,NaN, NaN,21.3,245.0,243.4,1113784436,1113784436,1,10.4,002036,002036,243.9,30.861288,-121.552828,10.48,NaN,NaN,15.997, NaN,NaN,NaN, NaN, NaN
20050418,003426,293499,30.860583,-121.554490,5.1,16.015,33.008,41.677,324.89,0.0,0.859,15.405,15.378, NaN,24.213,   NaN,14.52,1016.63,94.56,14.80,72.2,51.3,8.0,3.6,356.7,36.3,8.4,5.2,NaN, NaN,21.2,253.6,240.1,1113784467,1113784466,1,11.0,002066,002066,245.7,30.860586,-121.554343,10.27,NaN,NaN,16.019, NaN,NaN,NaN, NaN, NaN
20050418,003456,293529,30.859898,-121.556023,4.9,16.031,33.009,41.693,318.39,0.0,0.859,15.408,15.379, NaN,24.210,   NaN,14.60,1016.61,94.68,14.83,71.1,63.2,8.1,3.1,355.1,35.8,8.4,5.3,NaN, NaN,22.1,254.7,240.6,1113784496,1113784496,1,10.8,002096,002096,244.7,30.859900,-121.555873,10.21,NaN,NaN,16.035, NaN,NaN,NaN, NaN, NaN
20050418,003526,293559,30.859201,-121.557538,5.1,16.041,33.020,41.715,317.28,0.0,0.840,15.415,15.380, NaN,24.216,   NaN,14.56,1016.55,94.38,14.85,70.7,62.3,8.3,3.4,353.8,38.5,8.5,5.8,NaN, NaN,23.4,243.7,239.9,1113784527,1113784526,1,10.5,002126,002126,242.8,30.859210,-121.557405,10.24,NaN,NaN,16.045, NaN,NaN,NaN, NaN, NaN
20050418,003557,293590,30.858478,-121.559060,5.0,16.047,33.032,41.735,316.59,0.0,0.840,15.414,15.379, NaN,24.224,   NaN,14.54,1016.54,94.24,14.80,72.4,64.9,8.5,3.7,354.1,36.7,8.8,5.8,NaN, NaN,22.9,233.4,234.2,1113784557,1113784556,1,10.5,002156,002156,245.8,30.858503,-121.558920,10.15,NaN,NaN,16.051, NaN,NaN,NaN, NaN, NaN
20050418,003627,293620,30.857838,-121.560571,5.0,16.051,33.046,41.754,315.42,0.0,0.859,15.407,15.376, NaN,24.234,   NaN,14.56,1016.59,94.31,14.81,74.2,75.8,8.4,3.5,356.7,34.8,8.9,5.9,NaN, NaN,22.2,224.1,242.6,1113784587,1113784586,1,9.8,002186,002186,244.6,30.857856,-121.560438,10.07,NaN,NaN,16.055, NaN,NaN,NaN, NaN, NaN
20050418,003656,293649,30.857190,-121.562105,5.0,16.053,33.059,41.771,319.67,0.0,0.859,15.401,15.369, NaN,24.243,   NaN,14.60,1016.66,94.31,14.85,74.8,65.4,7.8,3.7,359.6,33.0,8.6,5.6,NaN, NaN,22.1,242.6,252.4,1113784616,1113784616,1,10.8,002216,002216,244.7,30.857188,-121.561961,10.09,NaN,NaN,16.057, NaN,NaN,NaN, NaN, NaN
20050418,003726,293679,30.856476,-121.563603,5.2,16.057,33.070,41.786,327.57,0.0,0.859,15.389,15.355, NaN,24.251,   NaN,14.62,1016.60,94.21,14.87,74.5,73.8,7.8,4.3,359.0,27.7,8.5,6.1,NaN, NaN,21.9,227.3,245.5,1113784646,1113784646,1,10.3,002246,002246,243.1,30.856491,-121.563460,9.91,NaN,NaN,16.061, NaN,NaN,NaN, NaN, NaN
20050418,003756,293709,30.855761,-121.565126,4.9,16.058,33.081,41.800,330.16,0.0,0.840,15.381,15.348, NaN,24.259,   NaN,14.62,1016.68,94.05,14.87,71.7,95.3,8.0,4.0,355.3,36.5,8.4,7.0,NaN, NaN,21.3,252.6,249.2,1113784676,1113784676,1,10.4,002276,002276,244.7,30.855781,-121.564965,10.42,NaN,NaN,16.062, NaN,NaN,NaN, NaN, NaN
20050418,003826,293739,30.855083,-121.566593,4.9,16.055,33.093,41.811,321.60,0.0,0.840,15.373,15.342, NaN,24.269,   NaN,14.61,1016.65,94.01,14.87,68.2,92.3,8.2,3.8,351.4,36.2,8.2,6.9,NaN, NaN,21.1,255.3,248.3,1113784706,1113784706,1,10.3,002305,002306,246.6,30.855088,-121.566486,10.20,NaN,NaN,16.059, NaN,NaN,NaN, NaN, NaN
20050418,003856,293769,30.854458,-121.568173,5.1,16.052,33.104,41.821,306.79,0.0,0.840,15.363,15.332, NaN,24.278,   NaN,14.58,1016.48,93.80,14.85,65.6,80.7,8.8,4.8,348.3,24.0,8.5,6.9,NaN, NaN,21.7,239.8,248.4,1113784736,1113784736,1,10.3,002336,002336,246.9,30.854481,-121.568018,10.02,NaN,NaN,16.056, NaN,NaN,NaN, NaN, NaN
20050418,003926,293799,30.853811,-121.569701,5.0,16.044,33.115,41.826,294.72,0.0,0.840,15.357,15.323, NaN,24.288,   NaN,14.53,1016.63,93.70,14.80,65.8,83.3,8.7,5.0,350.1,20.7,8.5,7.0,NaN, NaN,20.8,247.5,244.5,1113784766,1113784766,1,10.9,002366,002366,248.2,30.853833,-121.569541,9.77,NaN,NaN,16.048, NaN,NaN,NaN, NaN, NaN
20050418,003956,293829,30.853188,-121.571238,5.2,16.035,33.127,41.830,288.03,0.0,0.840,15.350,15.317, NaN,24.299,   NaN,14.55,1016.57,93.71,14.81,68.3,88.3,8.3,4.8,354.2,24.6,8.4,7.0,NaN, NaN,21.6,228.6,242.0,1113784796,1113784796,1,10.5,002396,002396,248.4,30.853215,-121.571071,10.14,NaN,NaN,16.039, NaN,NaN,NaN, NaN, NaN
20050418,004026,293859,30.852561,-121.572778,5.1,16.025,33.135,41.830,284.99,0.0,0.840,15.339,15.308, NaN,24.308,   NaN,14.51,1016.60,93.44,14.77,70.4,87.3,8.3,4.0,356.2,33.5,8.5,6.7,NaN, NaN,22.9,247.1,241.6,1113784826,1113784826,1,10.6,002426,002426,248.0,30.852585,-121.572610,9.90,NaN,NaN,16.029, NaN,NaN,NaN, NaN, NaN